Погода в Аксе

Погода в Аксе : погода сейчас, прогноз погоды и архив. Всё, что Вы хотите узнать о погоде в Аксе!

Хотите узнать прогноз погоды в Аксе? Тогда Вам сюда: Погода в Аксе

Поиск расширенной информации на нашем сайте:

Другие новости

Новости СМИ2

Главная страница сайта

Новости сайта

03.07.2017

Напоминаем, что на нашем специализированном сайте Метеоцентр.Азия вы можете получить высокодетализированные автоматические прогнозы погоды по пунктам России, СНГ и мира в авиационном формате (включающие направление и скорость ветра, видимость, явления погоды, количество и форму облачности, нижнюю и верхнюю границу облачности).

Рекомендуем: очень хочется рисовать в Manga Studio.

Погода в Аксе - сегодня

Время (UTC), дата Ветер
(°,м/с) 
Видим.   Явления Облачность Т
(°С)
Тd
(°С)
f(%) Тe
(°С)
Pmin
(гПа)
dP
(гПа)
Po
(мм)
O2
(г/м3)
Тmin Tmax R s Состояние
почвы
21 18.04.18 020 (С) 20000 м    9/0 средняя, верхняя 
[Ac As|Ci sp]
-1.3 -4.3 80 -1  1015.3  1.5  695  282           
03 19.04.18 070 (В) 20000 м    10/0 средняя 
[As trans]
+7.6 -11.8 24 +7  1012.2  -1.3  695  273           
06 19.04.18 100 (В) 3{10}  20000 м    8/0 средняя, верхняя 
[As op|Ci sp]
+12.3 -10.4 19 +12  1006.1  -4.2  692  268           
09 19.04.18 070 (В) 6{11}  20000 м    5/0 верхняя 
[Ci sp]
+9.4 -6 33 +8  1006.2  -0.7  691  270           
12 19.04.18 020 (С) 5{12}  20000 м    8/5 1000 м средняя 
[Sc|As op]
+2.6 -3.6 64 1012.1  3.5  694  277    +13.4       
15 19.04.18 360 (С) 6{10}  н/о    6/0 верхняя 
[Ci sp]
+1.3 -4.6 65 -2  1015.7  2.8  696  280           
18 19.04.18 350 (С) 3{10}  н/о    ясно 
-1.2 -4.6 78 -3  1018.7  1.2  697  282           
21 19.04.18 090 (В) 20000 м    4/0 верхняя 
[Ci sp]
-3 -7.3 72 -4  1019.8  1.3  698  285           
00 20.04.18 350 (С) 8-11{11}  20000 м    5/0 средняя, верхняя 
[Ac lent|Ci sp]
+2.3 -10.8 37 -1  1020.3  699  280  -3.7         
03 20.04.18 030 (СВ) 4{13}  20000 м    3/0 верхняя 
[Ci fib]
+5.8 -11.7 27 +4  1019.7  0.5  700  277           
09 20.04.18 020 (С) 6{12}  20000 м    1/0 верхняя 
[Ci fib]
+10.2 -11.8 20 +9  1017  0.6  699  272           
12 20.04.18 040 (СВ) 1{10}  20000 м    5/0 верхняя 
[Ci fib]
+5.6 -11.7 28 +6  1020.6  700  277    +10.6       
15 20.04.18 190 (Ю) н/о    5/0 верхняя 
[Ci sp]
-1.9 -11.3 49 -1  1025.3  1.9  702  286           
18 20.04.18 150 (ЮВ) н/о    4/0 верхняя 
[Ci sp]
-4.3 -10.2 63 -4  1027.1  703  289           
21 20.04.18 180 (Ю) 20000 м    5/0 верхняя 
[Ci fib]
-4.5 -9.5 68 -4  1028.1  0.8  703  289           
03 21.04.18 190 (Ю) 20000 м    6/0 верхняя 
[Ci fib]
+11.2 -11.1 20 +11  1023.7  -0.5  704  273           
06 21.04.18 220 (ЮЗ) 20000 м    4/0 верхняя 
[Ci fib]
+14.9 -12.5 14 +15  1021  -1.5  703  269           
09 21.04.18 210 (ЮЗ) 20000 м    4/0 верхняя 
[Ci fib]
+15.6 -11.8 14 +16  1019.6  -1.1  702  268           
15 21.04.18 050 (СВ) н/о    н/о 
+1.1 -8.8 48 +2  1028.1  2.2  705  284           
18 21.04.18 100 (В) н/о    ясно 
-2 -10.2 53 -1  1030.3  1.1  705  287           
21 21.04.18 110 (В) 20000 м    ясно 
-4.7 -10.7 63 -4  1032  0.7  706  290           
00 22.04.18 тихо ()   20000 м    ясно 
+3.5 -7.7 44 +4  1030.2  0.9  707  282  -5.6         
03 22.04.18 220 (ЮЗ) 20000 м    ясно 
+14.6 -11.2 16 +15  1025.5  -1.1  706  271           
06 22.04.18 260 (З) 5-10  20000 м    1/1 1000 м 
[Cu med, cong]
+18.1 -12.5 11 +18  1022  -2.2  704  267           
09 22.04.18 190 (Ю) 4{10}  20000 м    1/1 1000 м 
[Cu med, cong]
+17.8 -14 10 +18  1020.7  -1.3  703  267           
Время (UTC), дата Ветер
(°,м/с) 
Видим.   Явления Облачность Т
(°С)
Тd
(°С)
f(%) Тe
(°С)
Pmin
(гПа)
dP
(гПа)
Po
(мм)
O2
(г/м3)
Тmin Tmax R s Состояние
почвы

Для получения пояснительной информации подведите курсор к названию столбца.

ПОГОДА в Аксе - архив

Всё, что Вы хотите узнать о погоде в Аксе - удобно и подробно!

Выберите нужную дату (начиная с 1 января 2015* года) и нажмите кнопку "Найти".
Будут отображены архивные сводки погоды по пункту Акса, начиная с указанной даты.


Отображать данные в формате CSV (для использования в таблицах Excel)


Внимание! Наш архив погоды предназначен исключительно для личного некоммерческого использования в познавательных целях. Если Вам необходимы официальные справки о состоянии погоды (для производственных, юридических, коммерческих и т.п. целей), обращайтесь в органы Росгидромета.

*Примечание: данная дата относится к архиву по метеостанциям СССР (Россия, СНГ, Балтия).
Архив по метеостанциям Зарубежной Европы и Азии (кроме Китая) хранится 10 дней, по другим регионам земного шара (Китай, Африка, Америка, Австралия, Океания) - 1 день.

Акса - район местоположения метеостанции


Название, широта, долгота, высота метеостанции:
Акса 50.3°ш. 113.3°д. 732 м над ур. моря [Российская Федерация]

Дополнительная информация

В oтличие oт бoльшинства пoгoдных сайтoв мы публикуем пoдрoбную метеoинфoрмацию в детальнoм прoфессиoнальнoм фoрмате.

Характеристики температуры и влажнoсти вoздуха измеряются на высoте 2 м в тени вдали oт зданий и деревьев.
Скoрoсть ветра измеряется на высoте 10 м (на урoвне рoста челoвека скoрoсть ветра ниже в 1.5-2 раза). Если метеoстанция нахoдится в гoрoде или в лесу, тo скoрoсть ветра занижена на 2-4 м/с пo сравнению с oткрытым местoм. Скoрoсть ветра над акватoриями крупных рек и oзёр, а также на вершинах хoлмoв на 2-5 м/с выше, чем в oбычных услoвиях.
Атмoсфернoе давление в разных тoчках местнoсти мoжет значительнo oтличаться oт давления на метеoстанции, в зависимoсти oт услoвий рельефа (при пoдъёме на 10 м давление пoнижается примернo на 1 мм рт.ст.).